This demonstration page uses our WeatherBlox Daily Observations layout. Learn more.

Left ArrowRight Arrow

39.51506, -84.39828

Hourly Observations for November 11, 2020

Temp ( °F °C ) Dew Point ( °F °C ) Humidity (%) Winds ( mph kmh ) Pressure ( in mb ) Visibility ( mi km ) Precip ( " mm )
12:15 am 00:15 Cloudy with Light Rain 66 19 N/A N/A WSW 10 17 29.84 1010 3 4.82802 0.02 0.508
12:35 am 00:35 Cloudy with Light Rain 66 19 N/A N/A WSW 8 13 29.83 1010 3.5 5.63269 0.05 1.27
12:55 am 00:55 Cloudy with Rain 66 19 N/A N/A W 12 19 29.84 1010 3.5 5.63269 0.08 2.032
1:15 am 01:15 Cloudy with Light Rain 66 19 N/A N/A WSW 14 22 29.83 1010 5 8.0467 0.01 0.254
1:35 am 01:35 Cloudy 67 19.3 67 19.2 99 99 W 12 19 29.83 1010 10 16.0934 0.02 0.508
1:55 am 01:55 Cloudy 67 19.2 66 19.1 99 99 WSW 9 15 29.83 1010 10 16.0934 0.02 0.508
2:15 am 02:15 Cloudy 67 19.3 67 19.2 99 99 W 9 15 29.83 1010 10 16.0934 0 0
2:35 am 02:35 Cloudy 67 19.2 66 19.1 99 99 WSW 7 11 29.83 1010 10 16.0934 0 0
2:55 am 02:55 Cloudy with Light Rain 59 14.9 55 12.7 87 87 N 22 35 29.88 1012 7 11.26538 0 0
3:15 am 03:15 Cloudy 57 13.8 53 11.7 87 87 N 13 20 29.89 1012 10 16.0934 0 0
3:35 am 03:35 Cloudy 57 13.8 51 10.3 80 80 N 7 11 29.9 1013 10 16.0934 0 0
3:55 am 03:55 Cloudy 57 13.9 50 9.9 77 77 Calm 29.9 1013 10 16.0934 0 0
4:15 am 04:15 Cloudy 57 13.8 51 10.5 81 81 Calm 29.91 1013 10 16.0934 0 0
4:35 am 04:35 Cloudy 57 13.7 51 10.7 82 82 Calm 29.91 1013 10 16.0934 0 0
4:55 am 04:55 Cloudy 57 13.8 50 10.1 79 79 Calm 29.92 1013 10 16.0934 0 0
5:15 am 05:15 Cloudy with Light Rain 56 13.6 51 10.6 82 82 Calm 29.93 1014 10 16.0934 0 0
5:35 am 05:35 Cloudy 56 13.4 51 10.7 84 84 Calm 29.93 1014 10 16.0934 0 0
5:55 am 05:55 Cloudy 56 13.4 52 11.2 87 87 Calm 29.93 1014 10 16.0934 0 0
6:15 am 06:15 Cloudy 56 13.3 50 9.9 80 80 Calm 29.94 1014 10 16.0934 0 0
6:35 am 06:35 Cloudy 56 13.3 50 9.8 80 80 Calm 29.94 1014 10 16.0934 0 0
6:55 am 06:55 Cloudy 56 13.2 49 9.7 80 80 Calm 29.94 1014 10 16.0934 0 0
7:15 am 07:15 Cloudy 55 13 50 10 82 82 Calm 29.95 1014 10 16.0934 0 0
7:35 am 07:35 Cloudy 55 13 50 10 82 82 Calm 29.96 1015 10 16.0934 0 0
7:50 am 07:50 Cloudy 55 13 50 10.2 83 83 Calm 29.97 1015 10 16.0934 0 0
8:15 am 08:15 Cloudy 55 12.9 50 10 83 83 NNE 6 9 29.97 1015 10 16.0934 0 0
8:35 am 08:35 Cloudy 55 12.9 49 9.3 79 79 NNE 3 6 29.98 1015 10 16.0934 0 0
8:55 am 08:55 Cloudy 55 12.6 48 8.7 77 77 NNE 8 13 29.99 1016 10 16.0934 0 0
9:15 am 09:15 Cloudy 54 12.3 48 8.7 79 79 N 7 11 29.99 1016 10 16.0934 0 0
9:35 am 09:35 Cloudy 54 12.4 48 9 80 80 N 8 13 29.99 1016 10 16.0934 0 0
9:55 am 09:55 Cloudy 54 12.4 49 9.2 81 81 NNE 8 13 29.99 1016 10 16.0934 0 0
10:15 am 10:15 Cloudy 55 12.5 49 9.3 81 81 NNW 9 15 30.01 1016 10 16.0934 0 0
10:35 am 10:35 Cloudy 55 12.6 49 9.5 82 82 NNE 8 13 30.01 1016 10 16.0934 0 0
10:55 am 10:55 Cloudy 54 12.1 49 9.3 83 83 N 10 17 30.01 1016 10 16.0934 0 0
11:15 am 11:15 Cloudy 55 12.7 49 9.2 79 79 NNE 8 13 30.02 1017 10 16.0934 0 0
11:35 am 11:35 Cloudy 55 12.5 45 7 69 69 N 10 17 30.02 1017 10 16.0934 0 0
11:55 am 11:55 Mostly Cloudy 55 13 42 5.6 61 61 N 8 13 30.02 1017 10 16.0934 0 0
12:15 pm 12:15 Partly Cloudy 56 13.5 45 7.4 67 67 NNE 8 13 30.02 1017 10 16.0934 0 0
12:35 pm 12:35 Cloudy 55 12.6 44 6.4 66 66 N 7 11 30.02 1017 10 16.0934 0 0
12:55 pm 12:55 Cloudy 55 12.7 44 6.8 68 68 N 7 11 30.02 1017 10 16.0934 0 0
1:15 pm 13:15 Cloudy 54 12.3 43 6.1 66 66 N 9 15 30.02 1017 10 16.0934 0 0
1:35 pm 13:35 Cloudy 55 12.5 43 5.9 64 64 N 5 7 30.03 1017 10 16.0934 0 0
1:55 pm 13:55 Mostly Cloudy 55 12.6 40 4.4 58 58 NNE 7 11 30.02 1017 10 16.0934 0 0
2:15 pm 14:15 Mostly Cloudy 55 12.7 40 4.6 58 58 NNE 9 15 30.02 1017 10 16.0934 0 0
2:35 pm 14:35 Partly Cloudy 56 13.1 42 5.4 60 60 NNW 13 20 30.02 1017 10 16.0934 0 0
2:55 pm 14:55 Sunny 55 12.9 39 3.9 55 55 N 13 20 30.02 1017 10 16.0934 0 0
3:15 pm 15:15 Sunny 55 12.9 39 3.9 55 55 N 9 15 30.03 1017 10 16.0934 0 0
3:35 pm 15:35 Sunny 55 12.6 38 3.2 53 53 NE 9 15 30.03 1017 10 16.0934 0 0
3:55 pm 15:55 Sunny 55 12.5 38 3.1 53 53 N 8 13 30.04 1017 10 16.0934 0 0
4:15 pm 16:15 Sunny 54 12.1 37 2.7 53 53 NNE 10 17 30.04 1017 10 16.0934 0 0
4:35 pm 16:35 Sunny 53 11.6 36 2.1 52 52 NNE 7 11 30.05 1018 10 16.0934 0 0
4:55 pm 16:55 Sunny 52 11.2 38 3.1 58 58 NNE 5 7 30.07 1018 10 16.0934 0 0
5:15 pm 17:15 Sunny 51 10.6 38 3.6 62 62 NNE 3 6 30.07 1018 10 16.0934 0 0
5:35 pm 17:35 Clear 50 10.2 38 3.5 63 63 Calm 30.07 1018 10 16.0934 0 0
5:55 pm 17:55 Clear 48 9 39 3.9 71 71 ENE 6 9 30.08 1019 10 16.0934 0 0
6:15 pm 18:15 Clear 47 8.2 39 4 75 75 NE 5 7 30.09 1019 10 16.0934 0 0
6:35 pm 18:35 Clear 46 7.9 39 3.7 75 75 NE 7 11 30.1 1019 10 16.0934 0 0
6:55 pm 18:55 Clear 45 7.2 38 3.4 77 77 NE 6 9 30.12 1020 10 16.0934 0 0
7:15 pm 19:15 Clear 44 6.7 38 3.2 79 79 NE 5 7 30.13 1020 10 16.0934 0 0
7:35 pm 19:35 Clear 43 6.2 37 2.9 80 80 NNE 6 9 30.14 1021 10 16.0934 0 0
7:55 pm 19:55 Clear 43 5.9 37 2.9 81 81 NNE 8 13 30.14 1021 10 16.0934 0 0
8:15 pm 20:15 Clear 42 5.4 37 2.8 84 84 NE 8 13 30.15 1021 10 16.0934 0 0
8:35 pm 20:35 Clear 41 4.9 37 2.6 85 85 NE 7 11 30.15 1021 10 16.0934 0 0
8:55 pm 20:55 Clear 40 4.3 36 2.3 87 87 NE 8 13 30.16 1021 10 16.0934 0 0
9:15 pm 21:15 Clear 39 4.1 36 2 86 86 NE 7 11 30.16 1021 10 16.0934 0 0
9:35 pm 21:35 Clear 39 3.8 35 1.8 87 87 NE 8 13 30.18 1022 10 16.0934 0 0
9:55 pm 21:55 Clear 38 3.4 35 1.6 88 88 ENE 7 11 30.18 1022 10 16.0934 0 0
10:15 pm 22:15 Clear 37 3 34 1.3 89 89 ENE 3 6 30.18 1022 10 16.0934 0 0
10:35 pm 22:35 Clear 37 2.8 34 1.1 89 89 E 3 6 30.18 1022 10 16.0934 0 0
10:55 pm 22:55 Clear 37 2.7 34 1.1 89 89 ENE 6 9 30.18 1022 10 16.0934 0 0
11:15 pm 23:15 Clear 37 2.5 34 1 90 90 ENE 5 7 30.18 1022 10 16.0934 0 0
11:35 pm 23:35 Clear 36 2 33 0.8 92 92 ENE 3 6 30.18 1022 10 16.0934 0 0
11:55 pm 23:55 Clear 35 1.7 33 0.7 93 93 ENE 3 6 30.18 1022 10 16.0934 0 0

Powered by AerisWeather